Volver al catálogo

STARLINK-32263

ActivoComunicacionesVLEO
NORAD 60371·PAYLOAD·🇺🇸 United States

Lanzado Aug 4, 2024 desde Vandenberg Space Force Base

Loading…

Próximos Pases (próximas 24 horas)

TLE

ActualizadoSource: CelesTrak SupGP

Época: Sep 15, 2026, 03:41 UTC

1 60371C 24138S   26258.15395833  .00063625  00000+0  18801-2 0  2584
2 60371  53.1573 148.6685 0001228  79.1826  81.3976 15.34353418    19

Sigue STARLINK-32263 en tiempo real con AllMySat

Download on the App Store